,,,PA_Meas_PMT16A,,PR_Meas_QMR101_102,,RH_Meas_QMH101,,SR_Meas_QMS101,,TA_Meas_QMH101,,GenWind,,GenWind,
date,time,status,PA,status,PR,status,RH,status,SR,status,TA,status,DirAvg,status,SpdAvg,
2009-09-07, 00:00:04,VALID,1010.5,VALID,0,VALID,95.8176,VALID,0.105969,VALID,23.361,VALID,39,VALID,0,
2009-09-07, 00:01:04,VALID,1010.51,VALID,0,VALID,95.8252,VALID,0.105969,VALID,23.3415,VALID,39,VALID,0,
2009-09-07, 00:02:04,VALID,1010.49,VALID,0,VALID,95.8328,VALID,0.105969,VALID,23.3415,VALID,39,VALID,0,
2009-09-07, 00:03:04,VALID,1010.46,VALID,0,VALID,95.8633,VALID,0.105969,VALID,23.3238,VALID,39,VALID,0,
2009-09-07, 00:04:04,VALID,1010.45,VALID,0,VALID,95.8786,VALID,0.105969,VALID,23.2831,VALID,39,VALID,0,
2009-09-07, 00:05:04,VALID,1010.44,VALID,0,VALID,95.871,VALID,0.105969,VALID,23.2636,VALID,39,VALID,0,
2009-09-07, 00:06:04,VALID,1010.44,VALID,0,VALID,95.871,VALID,0,VALID,23.2441,VALID,39,VALID,0,
2009-09-07, 00:07:04,VALID,1010.42,VALID,0,VALID,95.9015,VALID,0,VALID,23.2459,VALID,39,VALID,0,
2009-09-07, 00:08:04,VALID,1010.39,VALID,0,VALID,95.932,VALID,0,VALID,23.2264,VALID,39,VALID,0,
2009-09-07, 00:09:04,VALID,1010.4,VALID,0,VALID,95.932,VALID,0,VALID,23.2069,VALID,39,VALID,0,
2009-09-07, 00:10:04,VALID,1010.33,VALID,0,VALID,95.9549,VALID,0,VALID,23.1874,VALID,45,VALID,0,
2009-09-07, 00:11:04,VALID,1010.32,VALID,0,VALID,95.9854,VALID,0,VALID,23.1874,VALID,46,VALID,0,
2009-09-07, 00:12:04,VALID,1010.28,VALID,0,VALID,96.0311,VALID,0,VALID,23.1679,VALID,80,VALID,0.422266,
2009-09-07, 00:13:04,VALID,1010.26,VALID,0,VALID,96.0616,VALID,0,VALID,23.1874,VALID,80,VALID,0.341406,
2009-09-07, 00:14:04,VALID,1010.22,VALID,0,VALID,96.0692,VALID,0,VALID,23.1679,VALID,99,VALID,0.833203,
2009-09-07, 00:15:04,VALID,1010.23,VALID,0,VALID,96.0921,VALID,0,VALID,23.1679,VALID,100,VALID,0.541797,
2009-09-07, 00:16:04,VALID,1010.19,VALID,0,VALID,96.0921,VALID,0,VALID,23.1485,VALID,100,VALID,0.342578,
2009-09-07, 00:17:04,VALID,1010.2,VALID,0,VALID,96.054,VALID,0,VALID,23.129,VALID,104,VALID,0.641016,
2009-09-07, 00:18:04,VALID,1010.19,VALID,0,VALID,96.054,VALID,0,VALID,23.1485,VALID,100,VALID,0.759766,
2009-09-07, 00:19:04,VALID,1010.19,VALID,0,VALID,96.0692,VALID,0,VALID,23.1679,VALID,78,VALID,0.738672,
2009-09-07, 00:20:04,VALID,1010.16,VALID,0,VALID,96.0997,VALID,0,VALID,23.1679,VALID,78,VALID,0.692578,
2009-09-07, 00:21:04,VALID,1010.16,VALID,0,VALID,96.115,VALID,0,VALID,23.1679,VALID,78,VALID,0.610156,
2009-09-07, 00:22:04,VALID,1010.13,VALID,0,VALID,96.1074,VALID,0.105969,VALID,23.1874,VALID,78,VALID,0.710938,
2009-09-07, 00:23:04,VALID,1010.1,VALID,0,VALID,96.1074,VALID,0.105969,VALID,23.1662,VALID,78,VALID,0.520312,
2009-09-07, 00:24:04,VALID,1010.06,VALID,0,VALID,96.0845,VALID,0,VALID,23.1467,VALID,78,VALID,0.476953,
2009-09-07, 00:25:04,VALID,1010.05,VALID,0,VALID,96.0769,VALID,0.105969,VALID,23.1272,VALID,78,VALID,0.391406,
2009-09-07, 00:26:04,VALID,1010.02,VALID,0,VALID,96.0387,VALID,0.105969,VALID,23.1272,VALID,78,VALID,0.462891,
2009-09-07, 00:27:04,VALID,1009.99,VALID,0,VALID,96.0235,VALID,0.105969,VALID,23.1077,VALID,69,VALID,0.434375,
2009-09-07, 00:28:04,VALID,1010,VALID,0,VALID,96.0616,VALID,0.105969,VALID,23.1272,VALID,88,VALID,0.4125,
2009-09-07, 00:29:04,VALID,1009.98,VALID,0,VALID,96.0464,VALID,0,VALID,23.1077,VALID,88,VALID,0.704297,
2009-09-07, 00:30:04,VALID,1010,VALID,0,VALID,96.0464,VALID,0.105969,VALID,23.1077,VALID,101,VALID,0.517969,
2009-09-07, 00:31:04,VALID,1009.97,VALID,0,VALID,95.9854,VALID,0.105969,VALID,23.09,VALID,101,VALID,0.153906,
2009-09-07, 00:32:04,VALID,1009.97,VALID,0,VALID,95.9396,VALID,0,VALID,23.0493,VALID,101,VALID,0.00234375,
2009-09-07, 00:33:04,VALID,1009.98,VALID,0,VALID,95.9625,VALID,0.105969,VALID,23.0493,VALID,101,VALID,0,
2009-09-07, 00:34:04,VALID,1009.98,VALID,0,VALID,95.932,VALID,0,VALID,23.0705,VALID,101,VALID,0.0140625,
2009-09-07, 00:35:04,VALID,1009.98,VALID,0,VALID,95.9549,VALID,0.105969,VALID,23.0493,VALID,101,VALID,0.151172,
2009-09-07, 00:36:04,VALID,1009.95,VALID,0,VALID,95.9167,VALID,0,VALID,23.0528,VALID,101,VALID,0.273828,
2009-09-07, 00:37:04,VALID,1009.9,VALID,0,VALID,95.9015,VALID,0,VALID,23.0316,VALID,100,VALID,0.297656,
2009-09-07, 00:38:04,VALID,1009.9,VALID,0,VALID,95.9625,VALID,0,VALID,23.0316,VALID,99,VALID,0.357031,
2009-09-07, 00:39:04,VALID,1009.92,VALID,0,VALID,95.9625,VALID,0,VALID,23.0316,VALID,99,VALID,0.148828,
2009-09-07, 00:40:04,VALID,1009.88,VALID,0,VALID,96.0082,VALID,0,VALID,23.0121,VALID,86,VALID,0.367578,
2009-09-07, 00:41:04,VALID,1009.9,VALID,0,VALID,96.0311,VALID,0,VALID,23.0316,VALID,78,VALID,0.521484,
2009-09-07, 00:42:04,VALID,1009.88,VALID,0,VALID,96.0464,VALID,0,VALID,23.0511,VALID,63,VALID,0.464453,
2009-09-07, 00:43:04,VALID,1009.87,VALID,0,VALID,96.0921,VALID,0,VALID,23.0511,VALID,48,VALID,0.395703,
2009-09-07, 00:44:04,VALID,1009.89,VALID,0,VALID,96.1074,VALID,0,VALID,23.0511,VALID,48,VALID,0.365625,
2009-09-07, 00:45:04,VALID,1009.86,VALID,0,VALID,96.0845,VALID,0,VALID,23.0511,VALID,48,VALID,0.187891,
2009-09-07, 00:46:04,VALID,1009.86,VALID,0,VALID,96.0769,VALID,0,VALID,23.0528,VALID,48,VALID,0.151562,
2009-09-07, 00:47:04,VALID,1009.83,VALID,0,VALID,96.054,VALID,0,VALID,23.0121,VALID,48,VALID,0.321094,
2009-09-07, 00:48:04,VALID,1009.83,VALID,0,VALID,96.1074,VALID,0,VALID,23.0121,VALID,40,VALID,0.441797,
2009-09-07, 00:49:04,VALID,1009.83,VALID,0,VALID,96.1226,VALID,0,VALID,22.9926,VALID,24,VALID,0.335547,
2009-09-07, 00:50:04,VALID,1009.81,VALID,0,VALID,96.1226,VALID,0,VALID,23.0138,VALID,24,VALID,0.363281,
2009-09-07, 00:51:04,VALID,1009.81,VALID,0,VALID,96.1455,VALID,0,VALID,22.9731,VALID,19,VALID,0.340625,
2009-09-07, 00:52:04,VALID,1009.83,VALID,0,VALID,96.1379,VALID,0,VALID,22.9536,VALID,360,VALID,0.36875,
2009-09-07, 00:53:04,VALID,1009.83,VALID,0,VALID,96.1226,VALID,0,VALID,22.9147,VALID,360,VALID,0.739062,
2009-09-07, 00:54:04,VALID,1009.85,VALID,0,VALID,96.1531,VALID,0,VALID,22.9164,VALID,360,VALID,0.831641,
2009-09-07, 00:55:04,VALID,1009.87,VALID,0,VALID,96.176,VALID,0,VALID,22.8757,VALID,360,VALID,0.708203,
2009-09-07, 00:56:04,VALID,1009.89,VALID,0,VALID,96.2523,VALID,0,VALID,22.8969,VALID,346,VALID,0.594922,
2009-09-07, 00:57:04,VALID,1009.91,VALID,0,VALID,96.2828,VALID,0,VALID,22.8775,VALID,340,VALID,0.708594,
2009-09-07, 00:58:04,VALID,1009.95,VALID,0,VALID,96.3056,VALID,0,VALID,22.8562,VALID,341,VALID,0.642187,
2009-09-07, 00:59:04,VALID,1009.92,VALID,0,VALID,96.359,VALID,0,VALID,22.8775,VALID,334,VALID,0.682031,
2009-09-07, 01:00:04,VALID,1009.93,VALID,0,VALID,96.4124,VALID,0,VALID,22.8757,VALID,319,VALID,0.522266,
2009-09-07, 01:01:04,VALID,1009.95,VALID,0,VALID,96.4277,VALID,0,VALID,22.8952,VALID,320,VALID,0,
2009-09-07, 01:02:04,VALID,1009.93,VALID,0,VALID,96.4582,VALID,0,VALID,22.8952,VALID,320,VALID,0,
2009-09-07, 01:03:04,VALID,1009.96,VALID,0,VALID,96.5039,VALID,0,VALID,22.9359,VALID,318,VALID,0.122656,
2009-09-07, 01:04:04,VALID,1009.97,VALID,0,VALID,96.5115,VALID,0,VALID,22.9147,VALID,272,VALID,0.0121094,
2009-09-07, 01:05:04,VALID,1009.97,VALID,0,VALID,96.5344,VALID,0,VALID,22.9536,VALID,294,VALID,0.571484,
2009-09-07, 01:06:04,VALID,1009.98,VALID,0,VALID,96.5497,VALID,0,VALID,22.9749,VALID,345,VALID,0.211328,
2009-09-07, 01:07:04,VALID,1009.98,VALID,0,VALID,96.5573,VALID,0,VALID,22.9749,VALID,8,VALID,0.312109,
2009-09-07, 01:08:04,VALID,1010,VALID,0,VALID,96.542,VALID,0,VALID,22.9749,VALID,8,VALID,0.0328125,
2009-09-07, 01:09:04,VALID,1010,VALID,0,VALID,96.5115,VALID,0,VALID,22.9342,VALID,8,VALID,0.0234375,
2009-09-07, 01:10:04,VALID,1010,VALID,0,VALID,96.5115,VALID,0,VALID,22.9359,VALID,7,VALID,0.191406,
2009-09-07, 01:11:04,VALID,1009.99,VALID,0,VALID,96.4963,VALID,0,VALID,22.9147,VALID,3,VALID,0.247266,
2009-09-07, 01:12:04,VALID,1009.94,VALID,0,VALID,96.481,VALID,0,VALID,22.8935,VALID,3,VALID,0.148438,
2009-09-07, 01:13:04,VALID,1009.95,VALID,0,VALID,96.4734,VALID,0,VALID,22.9147,VALID,3,VALID,0,
2009-09-07, 01:14:04,VALID,1009.95,VALID,0,VALID,96.4429,VALID,0,VALID,22.8952,VALID,3,VALID,0,
2009-09-07, 01:15:04,VALID,1009.91,VALID,0,VALID,96.4658,VALID,0,VALID,22.8952,VALID,3,VALID,0,
2009-09-07, 01:16:04,VALID,1009.89,VALID,0,VALID,96.4277,VALID,0,VALID,22.9164,VALID,3,VALID,0.0328125,
2009-09-07, 01:17:04,VALID,1009.87,VALID,0,VALID,96.4658,VALID,0,VALID,22.8952,VALID,3,VALID,0,
2009-09-07, 01:18:04,VALID,1009.86,VALID,0,VALID,96.4658,VALID,0,VALID,22.8952,VALID,3,VALID,0.01875,
2009-09-07, 01:19:04,VALID,1009.81,VALID,0,VALID,96.4505,VALID,0,VALID,22.8757,VALID,3,VALID,0,
2009-09-07, 01:20:04,VALID,1009.76,VALID,0,VALID,96.4658,VALID,0,VALID,22.8757,VALID,3,VALID,0,
2009-09-07, 01:21:04,VALID,1009.75,VALID,0,VALID,96.4658,VALID,0,VALID,22.8969,VALID,3,VALID,0,
2009-09-07, 01:22:04,VALID,1009.72,VALID,0,VALID,96.4582,VALID,0,VALID,22.8775,VALID,3,VALID,0,
2009-09-07, 01:23:04,VALID,1009.71,VALID,0,VALID,96.4887,VALID,0,VALID,22.8562,VALID,3,VALID,0,
2009-09-07, 01:24:04,VALID,1009.71,VALID,0,VALID,96.5115,VALID,0,VALID,22.8757,VALID,3,VALID,0.194141,
2009-09-07, 01:25:04,VALID,1009.68,VALID,0,VALID,96.5268,VALID,0,VALID,22.8562,VALID,3,VALID,0.0574219,
2009-09-07, 01:26:04,VALID,1009.69,VALID,0,VALID,96.5115,VALID,0,VALID,22.8775,VALID,3,VALID,0,
2009-09-07, 01:27:04,VALID,1009.67,VALID,0,VALID,96.5268,VALID,0,VALID,22.8562,VALID,3,VALID,0,
2009-09-07, 01:28:04,VALID,1009.69,VALID,0,VALID,96.5344,VALID,0,VALID,22.858,VALID,3,VALID,0,
2009-09-07, 01:29:04,VALID,1009.69,VALID,0,VALID,96.5192,VALID,0,VALID,22.8173,VALID,3,VALID,0,
2009-09-07, 01:30:04,VALID,1009.66,VALID,0,VALID,96.5039,VALID,0,VALID,22.7978,VALID,3,VALID,0,
2009-09-07, 01:31:04,VALID,1009.68,VALID,0,VALID,96.5268,VALID,0,VALID,22.7978,VALID,3,VALID,0,
2009-09-07, 01:32:04,VALID,1009.67,VALID,0,VALID,96.5497,VALID,0,VALID,22.7978,VALID,3,VALID,0,
2009-09-07, 01:33:04,VALID,1009.68,VALID,0,VALID,96.5573,VALID,0,VALID,22.7783,VALID,3,VALID,0,
2009-09-07, 01:34:04,VALID,1009.68,VALID,0,VALID,96.5649,VALID,0,VALID,22.7978,VALID,3,VALID,0,
2009-09-07, 01:35:04,VALID,1009.68,VALID,0,VALID,96.6107,VALID,0,VALID,22.7978,VALID,3,VALID,0,
2009-09-07, 01:36:04,VALID,1009.67,VALID,0,VALID,96.6107,VALID,0,VALID,22.7978,VALID,3,VALID,0,
2009-09-07, 01:37:04,VALID,1009.68,VALID,0,VALID,96.6183,VALID,0,VALID,22.7783,VALID,3,VALID,0,
2009-09-07, 01:38:04,VALID,1009.65,VALID,0,VALID,96.6183,VALID,0,VALID,22.7783,VALID,3,VALID,0,
2009-09-07, 01:39:04,VALID,1009.64,VALID,0,VALID,96.6259,VALID,0,VALID,22.7588,VALID,3,VALID,0.0988281,
2009-09-07, 01:40:04,VALID,1009.64,VALID,0,VALID,96.6335,VALID,0,VALID,22.7199,VALID,3,VALID,0.354688,
2009-09-07, 01:41:04,VALID,1009.58,VALID,0,VALID,96.6259,VALID,0,VALID,22.6809,VALID,100,VALID,0.526172,
2009-09-07, 01:42:04,VALID,1009.58,VALID,0,VALID,96.6107,VALID,0,VALID,22.6614,VALID,100,VALID,0.347266,
2009-09-07, 01:43:04,VALID,1009.54,VALID,0,VALID,96.5954,VALID,0,VALID,22.6826,VALID,100,VALID,0.582812,
2009-09-07, 01:44:04,VALID,1009.54,VALID,0,VALID,96.603,VALID,0,VALID,22.6614,VALID,100,VALID,0.488281,
2009-09-07, 01:45:04,VALID,1009.51,VALID,0,VALID,96.6412,VALID,0,VALID,22.6809,VALID,100,VALID,0.266406,
2009-09-07, 01:46:04,VALID,1009.48,VALID,0,VALID,96.6488,VALID,0,VALID,22.6809,VALID,100,VALID,0.245312,
2009-09-07, 01:47:04,VALID,1009.44,VALID,0,VALID,96.6717,VALID,0,VALID,22.7004,VALID,100,VALID,0.727344,
2009-09-07, 01:48:04,VALID,1009.43,VALID,0,VALID,96.6869,VALID,0,VALID,22.7004,VALID,100,VALID,0.649609,
2009-09-07, 01:49:04,VALID,1009.36,VALID,0,VALID,96.7022,VALID,0,VALID,22.642,VALID,100,VALID,0.6125,
2009-09-07, 01:50:04,VALID,1009.36,VALID,0,VALID,96.6793,VALID,0,VALID,22.564,VALID,108,VALID,0.578125,
2009-09-07, 01:51:04,VALID,1009.33,VALID,0,VALID,96.6717,VALID,0,VALID,22.564,VALID,175,VALID,0.90625,
2009-09-07, 01:52:04,VALID,1009.3,VALID,0,VALID,96.6564,VALID,0,VALID,22.564,VALID,176,VALID,0.751172,
2009-09-07, 01:53:04,VALID,1009.27,VALID,0,VALID,96.6869,VALID,0,VALID,22.5835,VALID,134,VALID,0.735547,
2009-09-07, 01:54:04,VALID,1009.27,VALID,0,VALID,96.7022,VALID,0,VALID,22.564,VALID,131,VALID,0.579687,
2009-09-07, 01:55:04,VALID,1009.27,VALID,0,VALID,96.7098,VALID,0,VALID,22.603,VALID,136,VALID,0.916797,
2009-09-07, 01:56:04,VALID,1009.25,VALID,0,VALID,96.7556,VALID,0,VALID,22.603,VALID,133,VALID,0.666016,
2009-09-07, 01:57:04,VALID,1009.24,VALID,0,VALID,96.7479,VALID,0,VALID,22.603,VALID,136,VALID,0.569922,
2009-09-07, 01:58:04,VALID,1009.23,VALID,0,VALID,96.7632,VALID,0,VALID,22.5835,VALID,136,VALID,0.758203,
2009-09-07, 01:59:04,VALID,1009.22,VALID,0,VALID,96.7632,VALID,0,VALID,22.5835,VALID,122,VALID,0.735156,
2009-09-07, 02:00:04,VALID,1009.2,VALID,0,VALID,96.7784,VALID,0,VALID,22.603,VALID,127,VALID,0.562109,
2009-09-07, 02:01:04,VALID,1009.2,VALID,0,VALID,96.7632,VALID,0,VALID,22.5835,VALID,123,VALID,0.564453,
2009-09-07, 02:02:04,VALID,1009.22,VALID,0,VALID,96.7784,VALID,0,VALID,22.6437,VALID,126,VALID,0.586719,
2009-09-07, 02:03:04,VALID,1009.2,VALID,0,VALID,96.7861,VALID,0,VALID,22.6225,VALID,126,VALID,0.408594,
2009-09-07, 02:04:04,VALID,1009.2,VALID,0,VALID,96.7784,VALID,0,VALID,22.642,VALID,127,VALID,0.462109,
2009-09-07, 02:05:04,VALID,1009.14,VALID,0,VALID,96.8013,VALID,0,VALID,22.642,VALID,127,VALID,0.416016,
2009-09-07, 02:06:04,VALID,1009.11,VALID,0,VALID,96.8242,VALID,0,VALID,22.6826,VALID,127,VALID,0.576563,
2009-09-07, 02:07:04,VALID,1009.06,VALID,0,VALID,96.8318,VALID,0,VALID,22.6614,VALID,140,VALID,0.464063,
2009-09-07, 02:08:04,VALID,1009.04,VALID,0,VALID,96.8318,VALID,0,VALID,22.6614,VALID,151,VALID,0.792578,
2009-09-07, 02:09:04,VALID,1008.97,VALID,0,VALID,96.8242,VALID,0,VALID,22.6614,VALID,167,VALID,0.886328,
2009-09-07, 02:10:04,VALID,1008.98,VALID,0,VALID,96.8166,VALID,0,VALID,22.642,VALID,168,VALID,0.874609,
2009-09-07, 02:11:04,VALID,1008.95,VALID,0,VALID,96.8166,VALID,0,VALID,22.6225,VALID,171,VALID,0.836328,
2009-09-07, 02:12:04,VALID,1008.94,VALID,0,VALID,96.8166,VALID,0,VALID,22.6225,VALID,179,VALID,0.558203,
2009-09-07, 02:13:04,VALID,1008.95,VALID,0,VALID,96.8013,VALID,0,VALID,22.603,VALID,167,VALID,0.669922,
2009-09-07, 02:14:04,VALID,1008.96,VALID,0,VALID,96.8318,VALID,0,VALID,22.603,VALID,131,VALID,0.592578,
2009-09-07, 02:15:04,VALID,1008.95,VALID,0,VALID,96.8394,VALID,0,VALID,22.6225,VALID,137,VALID,0.473828,
2009-09-07, 02:16:04,VALID,1008.92,VALID,0,VALID,96.8089,VALID,0,VALID,22.6614,VALID,142,VALID,0.710547,
2009-09-07, 02:17:04,VALID,1008.88,VALID,0,VALID,96.8394,VALID,0,VALID,22.6826,VALID,139,VALID,0.694531,
2009-09-07, 02:18:04,VALID,1008.84,VALID,0,VALID,96.8394,VALID,0,VALID,22.7021,VALID,139,VALID,0.963672,
2009-09-07, 02:19:04,VALID,1008.84,VALID,0,VALID,96.8471,VALID,0,VALID,22.7004,VALID,130,VALID,0.657031,
2009-09-07, 02:20:04,VALID,1008.78,VALID,0,VALID,96.8394,VALID,0,VALID,22.6809,VALID,138,VALID,0.635156,
2009-09-07, 02:21:04,VALID,1008.74,VALID,0,VALID,96.8623,VALID,0,VALID,22.6809,VALID,149,VALID,0.646094,
2009-09-07, 02:22:04,VALID,1008.74,VALID,0,VALID,96.8623,VALID,0.105969,VALID,22.6597,VALID,149,VALID,0.718359,
2009-09-07, 02:23:04,VALID,1008.7,VALID,0,VALID,96.8242,VALID,0,VALID,22.6597,VALID,146,VALID,0.945703,
2009-09-07, 02:24:04,VALID,1008.7,VALID,0,VALID,96.8318,VALID,0,VALID,22.6792,VALID,146,VALID,0.701563,
2009-09-07, 02:25:04,VALID,1008.64,VALID,0,VALID,96.8318,VALID,0.105969,VALID,22.6987,VALID,149,VALID,0.734766,
2009-09-07, 02:26:04,VALID,1008.64,VALID,0,VALID,96.8166,VALID,0.105969,VALID,22.7182,VALID,128,VALID,0.886328,
2009-09-07, 02:27:04,VALID,1008.62,VALID,0,VALID,96.8242,VALID,0.105969,VALID,22.7376,VALID,149,VALID,0.963672,
2009-09-07, 02:28:04,VALID,1008.61,VALID,0,VALID,96.8471,VALID,0.105969,VALID,22.7571,VALID,152,VALID,0.90625,
2009-09-07, 02:29:04,VALID,1008.56,VALID,0,VALID,96.8318,VALID,0.105969,VALID,22.7766,VALID,125,VALID,0.933594,
2009-09-07, 02:30:04,VALID,1008.54,VALID,0,VALID,96.8547,VALID,0.105969,VALID,22.7766,VALID,154,VALID,0.873828,
2009-09-07, 02:31:04,VALID,1008.56,VALID,0,VALID,96.8242,VALID,0.105969,VALID,22.8138,VALID,139,VALID,1.22109,
2009-09-07, 02:32:04,VALID,1008.55,VALID,0,VALID,96.8471,VALID,0.105969,VALID,22.8935,VALID,143,VALID,1.25352,
2009-09-07, 02:33:04,VALID,1008.57,VALID,0,VALID,96.8394,VALID,0.105969,VALID,22.9129,VALID,131,VALID,1.07695,
2009-09-07, 02:34:04,VALID,1008.58,VALID,0,VALID,96.8318,VALID,0.105969,VALID,22.9307,VALID,146,VALID,0.884375,
2009-09-07, 02:35:04,VALID,1008.56,VALID,0,VALID,96.8394,VALID,0.105969,VALID,22.9714,VALID,134,VALID,0.898047,
2009-09-07, 02:36:04,VALID,1008.59,VALID,0,VALID,96.8318,VALID,0.105969,VALID,23.0493,VALID,130,VALID,1.38437,
2009-09-07, 02:37:04,VALID,1008.57,VALID,0,VALID,96.8242,VALID,0,VALID,23.09,VALID,131,VALID,1.03633,
2009-09-07, 02:38:04,VALID,1008.57,VALID,0,VALID,96.8166,VALID,0,VALID,23.1679,VALID,153,VALID,1.17539,
2009-09-07, 02:39:04,VALID,1008.56,VALID,0,VALID,96.8089,VALID,0,VALID,23.2459,VALID,145,VALID,1.20664,
2009-09-07, 02:40:04,VALID,1008.55,VALID,0,VALID,96.8089,VALID,0,VALID,23.2654,VALID,125,VALID,0.660937,
2009-09-07, 02:41:04,VALID,1008.57,VALID,0,VALID,96.7861,VALID,0,VALID,23.3433,VALID,145,VALID,1.18555,
2009-09-07, 02:42:04,VALID,1008.57,VALID,0,VALID,96.7632,VALID,0,VALID,23.4017,VALID,139,VALID,1.45117,
2009-09-07, 02:43:04,VALID,1008.58,VALID,0,VALID,96.7251,VALID,0,VALID,23.4602,VALID,166,VALID,1.51797,
2009-09-07, 02:44:04,VALID,1008.6,VALID,0,VALID,96.6869,VALID,0,VALID,23.5186,VALID,171,VALID,1.07422,
2009-09-07, 02:45:04,VALID,1008.57,VALID,0,VALID,96.6335,VALID,0,VALID,23.5381,VALID,191,VALID,0.268359,
2009-09-07, 02:46:04,VALID,1008.6,VALID,0,VALID,96.5573,VALID,0,VALID,23.5576,VALID,191,VALID,0.291016,
2009-09-07, 02:47:04,VALID,1008.61,VALID,0,VALID,96.4734,VALID,0,VALID,23.5966,VALID,181,VALID,0.453125,
2009-09-07, 02:48:04,VALID,1008.6,VALID,0,VALID,96.4353,VALID,0,VALID,23.6568,VALID,167,VALID,0.639453,
2009-09-07, 02:49:04,VALID,1008.57,VALID,0,VALID,96.3819,VALID,0,VALID,23.6745,VALID,148,VALID,0.730469,
2009-09-07, 02:50:04,VALID,1008.54,VALID,0,VALID,96.2904,VALID,0,VALID,23.694,VALID,168,VALID,0.861328,
2009-09-07, 02:51:04,VALID,1008.57,VALID,0,VALID,96.2675,VALID,0,VALID,23.772,VALID,160,VALID,0.888281,
2009-09-07, 02:52:04,VALID,1008.56,VALID,0,VALID,96.1989,VALID,0,VALID,23.8109,VALID,174,VALID,1.10273,
2009-09-07, 02:53:04,VALID,1008.57,VALID,0,VALID,96.0769,VALID,0,VALID,23.8694,VALID,177,VALID,1.26367,
2009-09-07, 02:54:04,VALID,1008.61,VALID,0,VALID,95.9396,VALID,0,VALID,23.9084,VALID,168,VALID,0.875391,
2009-09-07, 02:55:04,VALID,1008.61,VALID,0,VALID,95.8252,VALID,0,VALID,23.9473,VALID,174,VALID,1.31094,
2009-09-07, 02:56:04,VALID,1008.61,VALID,0,VALID,95.7185,VALID,0,VALID,24.0058,VALID,173,VALID,1.94375,
2009-09-07, 02:57:04,VALID,1008.64,VALID,0,VALID,95.4744,VALID,0,VALID,24.0253,VALID,204,VALID,0.510156,
2009-09-07, 02:58:04,VALID,1008.64,VALID,0,VALID,95.299,VALID,0,VALID,24.0448,VALID,178,VALID,0.977734,
2009-09-07, 02:59:04,VALID,1008.65,VALID,0,VALID,95.1389,VALID,0,VALID,24.0643,VALID,172,VALID,0.953516,
2009-09-07, 03:00:04,VALID,1008.68,VALID,0,VALID,95.0245,VALID,0,VALID,24.0643,VALID,190,VALID,1.0793,
2009-09-07, 03:01:04,VALID,1008.66,VALID,0,VALID,94.933,VALID,0,VALID,24.1032,VALID,186,VALID,0.933203,
2009-09-07, 03:02:04,VALID,1008.68,VALID,0,VALID,94.8262,VALID,0,VALID,24.1227,VALID,187,VALID,0.619531,
2009-09-07, 03:03:04,VALID,1008.69,VALID,0,VALID,94.6966,VALID,0,VALID,24.1227,VALID,176,VALID,0.848047,
2009-09-07, 03:04:04,VALID,1008.71,VALID,0,VALID,94.5822,VALID,0,VALID,24.1227,VALID,172,VALID,0.297656,
2009-09-07, 03:05:04,VALID,1008.74,VALID,0,VALID,94.5898,VALID,0,VALID,24.1227,VALID,182,VALID,1.23828,
2009-09-07, 03:06:04,VALID,1008.72,VALID,0,VALID,94.5288,VALID,0,VALID,24.1617,VALID,192,VALID,0.757813,
2009-09-07, 03:07:04,VALID,1008.73,VALID,0,VALID,94.4755,VALID,0,VALID,24.1617,VALID,163,VALID,0.323828,
2009-09-07, 03:08:04,VALID,1008.73,VALID,0,VALID,94.3229,VALID,0,VALID,24.183,VALID,180,VALID,0.792578,
2009-09-07, 03:09:04,VALID,1008.71,VALID,0,VALID,94.3687,VALID,0,VALID,24.2007,VALID,191,VALID,1.01875,
2009-09-07, 03:10:04,VALID,1008.69,VALID,0,VALID,94.2848,VALID,0,VALID,24.2202,VALID,183,VALID,0.938672,
2009-09-07, 03:11:04,VALID,1008.7,VALID,0,VALID,94.2162,VALID,0,VALID,24.2591,VALID,169,VALID,0.655078,
2009-09-07, 03:12:04,VALID,1008.7,VALID,0,VALID,94.1552,VALID,0,VALID,24.2786,VALID,168,VALID,1.40469,
2009-09-07, 03:13:04,VALID,1008.66,VALID,0,VALID,93.9035,VALID,0,VALID,24.2786,VALID,183,VALID,0.879687,
2009-09-07, 03:14:04,VALID,1008.66,VALID,0,VALID,93.8578,VALID,0,VALID,24.2786,VALID,172,VALID,0.789844,
2009-09-07, 03:15:04,VALID,1008.62,VALID,0,VALID,93.7434,VALID,0,VALID,24.2591,VALID,169,VALID,0.939062,
2009-09-07, 03:16:04,VALID,1008.61,VALID,0,VALID,93.8578,VALID,0,VALID,24.2786,VALID,164,VALID,1.025,
2009-09-07, 03:17:04,VALID,1008.62,VALID,0,VALID,93.8044,VALID,0,VALID,24.2786,VALID,148,VALID,1.05039,
2009-09-07, 03:18:04,VALID,1008.63,VALID,0,VALID,93.8349,VALID,0,VALID,24.2981,VALID,158,VALID,0.646484,
2009-09-07, 03:19:04,VALID,1008.59,VALID,0,VALID,93.8196,VALID,0,VALID,24.3176,VALID,159,VALID,1.11289,
2009-09-07, 03:20:04,VALID,1008.59,VALID,0,VALID,93.751,VALID,0,VALID,24.3176,VALID,171,VALID,1.50742,
2009-09-07, 03:21:04,VALID,1008.6,VALID,0,VALID,93.7129,VALID,0,VALID,24.3566,VALID,152,VALID,1.32734,
2009-09-07, 03:22:04,VALID,1008.58,VALID,0,VALID,93.7205,VALID,0,VALID,24.3566,VALID,154,VALID,1.78555,
2009-09-07, 03:23:04,VALID,1008.58,VALID,0,VALID,93.6214,VALID,0,VALID,24.415,VALID,159,VALID,1.76445,
2009-09-07, 03:24:04,VALID,1008.6,VALID,0,VALID,93.4612,VALID,0,VALID,24.4559,VALID,163,VALID,1.72539,
2009-09-07, 03:25:04,VALID,1008.59,VALID,0,VALID,93.3545,VALID,0,VALID,24.4735,VALID,172,VALID,1.4625,
2009-09-07, 03:26:04,VALID,1008.59,VALID,0,VALID,93.2782,VALID,0,VALID,24.5125,VALID,178,VALID,1.56562,
2009-09-07, 03:27:04,VALID,1008.61,VALID,0,VALID,93.0723,VALID,0,VALID,24.532,VALID,176,VALID,1.38867,
2009-09-07, 03:28:05,VALID,1008.63,VALID,0,VALID,93.0494,VALID,0,VALID,24.5533,VALID,181,VALID,1.37891,
2009-09-07, 03:29:05,VALID,1008.61,VALID,0,VALID,93.0342,VALID,0,VALID,24.5125,VALID,165,VALID,1.27891,
2009-09-07, 03:30:05,VALID,1008.6,VALID,0,VALID,93.0266,VALID,0,VALID,24.532,VALID,181,VALID,1.03242,
2009-09-07, 03:31:05,VALID,1008.58,VALID,0,VALID,93.0189,VALID,0,VALID,24.5728,VALID,172,VALID,3.10781,
2009-09-07, 03:32:05,VALID,1008.57,VALID,0,VALID,92.8054,VALID,0,VALID,24.6099,VALID,166,VALID,2.07109,
2009-09-07, 03:33:05,VALID,1008.57,VALID,0,VALID,92.5919,VALID,0,VALID,24.6294,VALID,174,VALID,1.56523,
2009-09-07, 03:34:05,VALID,1008.58,VALID,0,VALID,92.5004,VALID,0,VALID,24.6294,VALID,173,VALID,1.81641,
2009-09-07, 03:35:05,VALID,1008.59,VALID,0,VALID,92.4699,VALID,0,VALID,24.6684,VALID,167,VALID,2.53164,
2009-09-07, 03:36:05,VALID,1008.58,VALID,0,VALID,92.2945,VALID,0,VALID,24.6879,VALID,166,VALID,2.47383,
2009-09-07, 03:37:05,VALID,1008.57,VALID,0,VALID,92.081,VALID,0,VALID,24.7288,VALID,180,VALID,1.37109,
2009-09-07, 03:38:05,VALID,1008.59,VALID,0,VALID,92.0581,VALID,0,VALID,24.7074,VALID,164,VALID,1.67773,
2009-09-07, 03:39:05,VALID,1008.58,VALID,0,VALID,92.0123,VALID,0,VALID,24.7074,VALID,194,VALID,1.44453,
2009-09-07, 03:40:05,VALID,1008.59,VALID,0,VALID,92.0047,VALID,0,VALID,24.6684,VALID,157,VALID,1.10781,
2009-09-07, 03:41:05,VALID,1008.62,VALID,0,VALID,92.1572,VALID,0,VALID,24.6684,VALID,185,VALID,2.04258,
2009-09-07, 03:42:05,VALID,1008.61,VALID,0,VALID,92.0886,VALID,0,VALID,24.6684,VALID,179,VALID,1.90898,
2009-09-07, 03:43:05,VALID,1008.64,VALID,0,VALID,92.0352,VALID,0,VALID,24.7093,VALID,190,VALID,2.0332,
2009-09-07, 03:44:05,VALID,1008.67,VALID,0,VALID,91.9208,VALID,0,VALID,24.6879,VALID,158,VALID,0.955859,
2009-09-07, 03:45:05,VALID,1008.66,VALID,0,VALID,91.9513,VALID,0,VALID,24.6879,VALID,196,VALID,1.45586,
2009-09-07, 03:46:05,VALID,1008.69,VALID,0,VALID,91.9285,VALID,0,VALID,24.7288,VALID,155,VALID,0.970703,